Home   Weather   Havana   Past weeks

Flag for Cuba Past Weather in Havana, Cuba — Yesterday and Last 2 Weeks

Now
77 °F

Partly sunny.


Feels Like: 79 °F
Forecast: N/A
Wind: 9 mph from South

Location: Aeropuerto Jose Marti - Rancho-Boyeros - Habana

Current Time: Jan 21, 2017 at 6:52:58 pm

Latest Report: Jan 21, 2017 at 5:55 pm


Visibility: N/A

Pressure: 29.89 "Hg

Humidity: 69%

Dew Point: 66 °F

Location of HavanaLocation

Past Weather in Havana — Graph

°F

Havana Temperature Yesterday

Maximum temperature yesterday: 82 °F (at 1:55 pm)
Minimum temperature yesterday: 59 °F (at 3:55 am)
Average temperature yesterday: 69 °F

High & Low Weather Summary for the Past Weeks

 TemperatureHumidityPressure
High84 °F (Jan 16, 1:55 pm)94% (Jan 7, 7:55 am)30.42 "Hg (Jan 7, 7:55 am)
Low52 °F (Jan 21, 7:27 am)35% (Jan 19, 2:55 pm)29.86 "Hg (Jan 21, 4:55 pm)
Average70 °F69%30.17 "Hg
* Reported Jan 6 4:55 pm — Jan 21 4:55 pm, Havana, Weather by CustomWeather, © 2017

Note: Actual official high and low records may vary slightly from our data, if they occured in-between our weather recording intervals... More about our weather records

Advertising

Havana Weather History for the Previous 24 Hours

Scroll right to see more
 ConditionsComfort  
Time TempWeatherWind HumidityBarometerVisibility
4:55 pm
Sat, Jan 21
79 °FPartly sunny.10 mph70%29.86 "HgN/A
3:55 pm79 °FPartly sunny.12 mph65%29.89 "HgN/A
2:55 pm81 °FPartly sunny.12 mph62%29.89 "HgN/A
1:55 pm81 °FPartly sunny.13 mph58%29.92 "HgN/A
12:55 pm81 °FScattered clouds.12 mph54%29.95 "Hg6 mi
11:55 am81 °FScattered clouds.12 mph54%29.98 "Hg6 mi
10:55 am79 °FPassing clouds.10 mph61%30.01 "Hg6 mi
9:55 am75 °FSunny.9 mph65%30.01 "Hg6 mi
8:55 am72 °FSunny.6 mph73%29.98 "Hg6 mi
7:55 am57 °FSunny.1 mph94%29.98 "Hg6 mi
7:27 am52 °FFog.No wind94%29.98 "Hg3 mi
6:55 am54 °FCool.No wind88%29.98 "Hg5 mi
5:55 am55 °FLight fog.2 mph94%29.98 "Hg5 mi
5:31 am54 °FCool.2 mph94%29.98 "Hg5 mi
4:55 am54 °FPassing clouds.2 mph94%29.98 "Hg5 mi
4:37 am54 °FLight fog.2 mph94%29.98 "Hg5 mi
3:55 am54 °FPassing clouds.3 mph94%29.98 "Hg6 mi
2:55 am57 °FLight fog.1 mph88%29.98 "Hg5 mi
1:55 am59 °FPassing clouds.5 mph88%29.98 "Hg6 mi
12:55 am66 °FPassing clouds.6 mph78%29.98 "Hg6 mi
11:55 pm
Fri, Jan 20
68 °FClear.5 mph73%30.01 "Hg6 mi
10:55 pm64 °FClear.5 mph83%30.01 "Hg6 mi
9:55 pm64 °FClear.3 mph83%30.01 "Hg6 mi
8:55 pm70 °FClear.2 mph78%30.01 "Hg6 mi
7:55 pm70 °FPassing clouds.3 mph78%30.01 "Hg6 mi
6:55 pm72 °FPassing clouds.3 mph69%29.98 "Hg6 mi
Weather by CustomWeather, © 2017

See weather overviewHow to use our weather pages